owner,sensor,date,latitude,longitude,vertical_datum,mass_concentration_of_oxygen_in_sea_water,qcFlag 
DISL,ioos:station:DISL:BSCA:1,2013-04-01T00:00:00Z,30.3288,-87.8293,2.016,5.85,1111122 
DISL,ioos:station:DISL:BSCA:1,2013-04-01T00:30:00Z,30.3288,-87.8293,1.969,5.63,1111122 
DISL,ioos:station:DISL:BSCA:1,2013-04-01T01:00:00Z,30.3288,-87.8293,1.948,7.1,1111122 
DISL,ioos:station:DISL:BSCA:1,2013-04-01T01:30:00Z,30.3288,-87.8293,1.948,7.33,1111122 
DISL,ioos:station:DISL:BSCA:1,2013-04-01T02:00:00Z,30.3288,-87.8293,1.904,6.71,1111122 
DISL,ioos:station:DISL:BSCA:1,2013-04-01T02:30:00Z,30.3288,-87.8293,1.895,5.78,1111122 
DISL,ioos:station:DISL:BSCA:1,2013-04-01T03:00:00Z,30.3288,-87.8293,1.818,6.24,1111122 
DISL,ioos:station:DISL:BSCA:1,2013-04-01T03:30:00Z,30.3288,-87.8293,1.784,7.12,1111122 
DISL,ioos:station:DISL:BSCA:1,2013-04-01T04:00:00Z,30.3288,-87.8293,1.74,3.55,1111122 
DISL,ioos:station:DISL:BSCA:1,2013-04-01T04:30:00Z,30.3288,-87.8293,1.728,6.23,1111122 
DISL,ioos:station:DISL:BSCA:1,2013-04-01T05:00:00Z,30.3288,-87.8293,1.729,10.13,1111122 
DISL,ioos:station:DISL:BSCA:1,2013-04-01T05:30:00Z,30.3288,-87.8293,1.748,9.41,1111122 
DISL,ioos:station:DISL:BSCA:1,2013-04-01T06:00:00Z,30.3288,-87.8293,1.755,3.37,1111122 
DISL,ioos:station:DISL:BSCA:1,2013-04-01T06:30:00Z,30.3288,-87.8293,1.765,8.89,1111122 
DISL,ioos:station:DISL:BSCA:1,2013-04-01T07:00:00Z,30.3288,-87.8293,1.785,9.46,1111122 
DISL,ioos:station:DISL:BSCA:1,2013-04-01T07:30:00Z,30.3288,-87.8293,1.79,5.82,1111122 
DISL,ioos:station:DISL:BSCA:1,2013-04-01T08:00:00Z,30.3288,-87.8293,1.804,5.15,1111122 
DISL,ioos:station:DISL:BSCA:1,2013-04-01T08:30:00Z,30.3288,-87.8293,1.795,6.74,1111122 
DISL,ioos:station:DISL:BSCA:1,2013-04-01T09:00:00Z,30.3288,-87.8293,1.781,7.11,1111122 
DISL,ioos:station:DISL:BSCA:1,2013-04-01T09:30:00Z,30.3288,-87.8293,1.785,6.53,1111122 
DISL,ioos:station:DISL:BSCA:1,2013-04-01T10:00:00Z,30.3288,-87.8293,1.797,7.72,1111122 
DISL,ioos:station:DISL:BSCA:1,2013-04-01T10:30:00Z,30.3288,-87.8293,1.84,8.3,1111122 
DISL,ioos:station:DISL:BSCA:1,2013-04-01T11:00:00Z,30.3288,-87.8293,1.868,6.06,1111122 
DISL,ioos:station:DISL:BSCA:1,2013-04-01T11:30:00Z,30.3288,-87.8293,1.898,5.46,1111122 
DISL,ioos:station:DISL:BSCA:1,2013-04-01T12:00:00Z,30.3288,-87.8293,1.94,4.96,1111122 
DISL,ioos:station:DISL:BSCA:1,2013-04-01T12:30:00Z,30.3288,-87.8293,1.96,4.79,1111122 
DISL,ioos:station:DISL:BSCA:1,2013-04-01T13:00:00Z,30.3288,-87.8293,1.98,4.75,1111122 
DISL,ioos:station:DISL:BSCA:1,2013-04-01T13:30:00Z,30.3288,-87.8293,2.017,4.96,1111122 
DISL,ioos:station:DISL:BSCA:1,2013-04-01T14:00:00Z,30.3288,-87.8293,2.055,5.06,1111122 
DISL,ioos:station:DISL:BSCA:1,2013-04-01T14:30:00Z,30.3288,-87.8293,2.095,5.74,1111122 
DISL,ioos:station:DISL:BSCA:1,2013-04-01T15:00:00Z,30.3288,-87.8293,2.135,6.77,1111122 
DISL,ioos:station:DISL:BSCA:1,2013-04-01T15:30:00Z,30.3288,-87.8293,2.152,7.72,1111122 
DISL,ioos:station:DISL:BSCA:1,2013-04-01T16:00:00Z,30.3288,-87.8293,2.16,8.35,1111122 
DISL,ioos:station:DISL:BSCA:1,2013-04-01T16:30:00Z,30.3288,-87.8293,2.165,8.02,1111122 
DISL,ioos:station:DISL:BSCA:1,2013-04-01T17:00:00Z,30.3288,-87.8293,2.17,8.18,1111122 
DISL,ioos:station:DISL:BSCA:1,2013-04-01T17:30:00Z,30.3288,-87.8293,2.187,8.17,1111122 
DISL,ioos:station:DISL:BSCA:1,2013-04-01T18:00:00Z,30.3288,-87.8293,2.149,8.38,1111122 
DISL,ioos:station:DISL:BSCA:1,2013-04-01T18:30:00Z,30.3288,-87.8293,2.149,8.36,1111122 
DISL,ioos:station:DISL:BSCA:1,2013-04-01T19:00:00Z,30.3288,-87.8293,2.168,8.4,1111122 
DISL,ioos:station:DISL:BSCA:1,2013-04-01T19:30:00Z,30.3288,-87.8293,2.169,8.46,1111122 
DISL,ioos:station:DISL:BSCA:1,2013-04-01T20:00:00Z,30.3288,-87.8293,2.158,8.61,1111122 
DISL,ioos:station:DISL:BSCA:1,2013-04-01T20:30:00Z,30.3288,-87.8293,2.137,8.48,1111122 
DISL,ioos:station:DISL:BSCA:1,2013-04-01T21:00:00Z,30.3288,-87.8293,2.11,8.93,1111122 
DISL,ioos:station:DISL:BSCA:1,2013-04-01T21:30:00Z,30.3288,-87.8293,2.083,8.87,1111122 
DISL,ioos:station:DISL:BSCA:1,2013-04-01T22:00:00Z,30.3288,-87.8293,2.048,8.92,1111122 
DISL,ioos:station:DISL:BSCA:1,2013-04-01T22:30:00Z,30.3288,-87.8293,2.025,8.83,1111122 
DISL,ioos:station:DISL:BSCA:1,2013-04-01T23:00:00Z,30.3288,-87.8293,1.999,8.8,1111122 
DISL,ioos:station:DISL:BSCA:1,2013-04-01T23:30:00Z,30.3288,-87.8293,1.974,8.91,1111122 
DISL,ioos:station:DISL:BSCA:1,2013-04-02T00:00:00Z,30.3288,-87.8293,1.963,9.33,1111122 
DISL,ioos:station:DISL:BSCA:1,2013-04-02T00:30:00Z,30.3288,-87.8293,1.939,9.86,1111122 
DISL,ioos:station:DISL:BSCA:1,2013-04-02T01:00:00Z,30.3288,-87.8293,1.917,9.45,1111122 
DISL,ioos:station:DISL:BSCA:1,2013-04-02T01:30:00Z,30.3288,-87.8293,1.879,9.44,1111122 
DISL,ioos:station:DISL:BSCA:1,2013-04-02T02:00:00Z,30.3288,-87.8293,1.859,9.43,1111122 
DISL,ioos:station:DISL:BSCA:1,2013-04-02T02:30:00Z,30.3288,-87.8293,1.802,9.44,1111122 
DISL,ioos:station:DISL:BSCA:1,2013-04-02T03:00:00Z,30.3288,-87.8293,1.785,9.24,1111122 
DISL,ioos:station:DISL:BSCA:1,2013-04-02T03:30:00Z,30.3288,-87.8293,1.74,9.37,1111122 
DISL,ioos:station:DISL:BSCA:1,2013-04-02T04:00:00Z,30.3288,-87.8293,1.714,9.24,1111122 
DISL,ioos:station:DISL:BSCA:1,2013-04-02T04:30:00Z,30.3288,-87.8293,1.689,9.06,1111122 
DISL,ioos:station:DISL:BSCA:1,2013-04-02T05:00:00Z,30.3288,-87.8293,1.677,9.13,1111122 
DISL,ioos:station:DISL:BSCA:1,2013-04-02T05:30:00Z,30.3288,-87.8293,1.666,8.92,1111122 
DISL,ioos:station:DISL:BSCA:1,2013-04-02T06:00:00Z,30.3288,-87.8293,1.652,8.98,1111122 
DISL,ioos:station:DISL:BSCA:1,2013-04-02T06:30:00Z,30.3288,-87.8293,1.634,8.09,1111122 
DISL,ioos:station:DISL:BSCA:1,2013-04-02T07:00:00Z,30.3288,-87.8293,1.618,8.55,1111122 
DISL,ioos:station:DISL:BSCA:1,2013-04-02T07:30:00Z,30.3288,-87.8293,1.604,8.36,1111122 
DISL,ioos:station:DISL:BSCA:1,2013-04-02T08:00:00Z,30.3288,-87.8293,1.597,8.88,1111122 
DISL,ioos:station:DISL:BSCA:1,2013-04-02T08:30:00Z,30.3288,-87.8293,1.595,8.89,1111122 
DISL,ioos:station:DISL:BSCA:1,2013-04-02T09:00:00Z,30.3288,-87.8293,1.603,8.78,1111122 
DISL,ioos:station:DISL:BSCA:1,2013-04-02T09:30:00Z,30.3288,-87.8293,1.604,8.72,1111122 
DISL,ioos:station:DISL:BSCA:1,2013-04-02T10:00:00Z,30.3288,-87.8293,1.619,8.59,1111122 
DISL,ioos:station:DISL:BSCA:1,2013-04-02T10:30:00Z,30.3288,-87.8293,1.633,8.63,1111122 
DISL,ioos:station:DISL:BSCA:1,2013-04-02T11:00:00Z,30.3288,-87.8293,1.643,8.26,1111122 
DISL,ioos:station:DISL:BSCA:1,2013-04-02T11:30:00Z,30.3288,-87.8293,1.671,6.76,1111122 
DISL,ioos:station:DISL:BSCA:1,2013-04-02T12:00:00Z,30.3288,-87.8293,1.7,7.89,1111122 
DISL,ioos:station:DISL:BSCA:1,2013-04-02T12:30:00Z,30.3288,-87.8293,1.733,7.98,1111122 
DISL,ioos:station:DISL:BSCA:1,2013-04-02T13:00:00Z,30.3288,-87.8293,1.768,7.93,1111122 
DISL,ioos:station:DISL:BSCA:1,2013-04-02T13:30:00Z,30.3288,-87.8293,1.8,8.24,1111122 
DISL,ioos:station:DISL:BSCA:1,2013-04-02T14:00:00Z,30.3288,-87.8293,1.838,8.61,1111122 
DISL,ioos:station:DISL:BSCA:1,2013-04-02T14:30:00Z,30.3288,-87.8293,1.868,7.62,1111122 
DISL,ioos:station:DISL:BSCA:1,2013-04-02T15:00:00Z,30.3288,-87.8293,1.891,7.24,1111122 
DISL,ioos:station:DISL:BSCA:1,2013-04-02T15:30:00Z,30.3288,-87.8293,1.913,7.99,1111122 
DISL,ioos:station:DISL:BSCA:1,2013-04-02T16:00:00Z,30.3288,-87.8293,1.922,7.08,1111122 
DISL,ioos:station:DISL:BSCA:1,2013-04-02T16:30:00Z,30.3288,-87.8293,1.956,7.26,1111122 
DISL,ioos:station:DISL:BSCA:1,2013-04-02T17:00:00Z,30.3288,-87.8293,1.983,8.22,1111122 
DISL,ioos:station:DISL:BSCA:1,2013-04-02T17:30:00Z,30.3288,-87.8293,2.006,8.77,1111122 
DISL,ioos:station:DISL:BSCA:1,2013-04-02T18:00:00Z,30.3288,-87.8293,2.04,8.47,1111122 
DISL,ioos:station:DISL:BSCA:1,2013-04-02T18:30:00Z,30.3288,-87.8293,2.069,7.9,1111122 
DISL,ioos:station:DISL:BSCA:1,2013-04-02T19:00:00Z,30.3288,-87.8293,2.104,5.64,1111122 
DISL,ioos:station:DISL:BSCA:1,2013-04-02T19:30:00Z,30.3288,-87.8293,2.114,8.45,1111122 
DISL,ioos:station:DISL:BSCA:1,2013-04-02T20:00:00Z,30.3288,-87.8293,2.139,7.34,1111122 
DISL,ioos:station:DISL:BSCA:1,2013-04-02T20:30:00Z,30.3288,-87.8293,2.142,7.46,1111122 
DISL,ioos:station:DISL:BSCA:1,2013-04-02T21:00:00Z,30.3288,-87.8293,2.145,8.18,1111122 
DISL,ioos:station:DISL:BSCA:1,2013-04-02T21:30:00Z,30.3288,-87.8293,2.135,7.47,1111122 
DISL,ioos:station:DISL:BSCA:1,2013-04-02T22:00:00Z,30.3288,-87.8293,2.134,8.1,1111122 
DISL,ioos:station:DISL:BSCA:1,2013-04-02T22:30:00Z,30.3288,-87.8293,2.11,8.61,1111122 
DISL,ioos:station:DISL:BSCA:1,2013-04-02T23:00:00Z,30.3288,-87.8293,2.086,9.38,1111122 
DISL,ioos:station:DISL:BSCA:1,2013-04-02T23:30:00Z,30.3288,-87.8293,2.07,9.8,1111122 
DISL,ioos:station:DISL:BSCA:1,2013-04-03T00:00:00Z,30.3288,-87.8293,2.054,10.15,1111122 
DISL,ioos:station:DISL:BSCA:1,2013-04-03T00:30:00Z,30.3288,-87.8293,2.012,9.69,1111122 
DISL,ioos:station:DISL:BSCA:1,2013-04-03T01:00:00Z,30.3288,-87.8293,1.975,9.51,1111122 
DISL,ioos:station:DISL:BSCA:1,2013-04-03T01:30:00Z,30.3288,-87.8293,1.939,10.05,1111122 
DISL,ioos:station:DISL:BSCA:1,2013-04-03T02:00:00Z,30.3288,-87.8293,1.913,8.68,1111122 
DISL,ioos:station:DISL:BSCA:1,2013-04-03T02:30:00Z,30.3288,-87.8293,1.887,8.59,1111122 
DISL,ioos:station:DISL:BSCA:1,2013-04-03T03:00:00Z,30.3288,-87.8293,1.859,8.96,1111122 
DISL,ioos:station:DISL:BSCA:1,2013-04-03T03:30:00Z,30.3288,-87.8293,1.838,8.28,1111122 
DISL,ioos:station:DISL:BSCA:1,2013-04-03T04:00:00Z,30.3288,-87.8293,1.797,8.86,1111122 
DISL,ioos:station:DISL:BSCA:1,2013-04-03T04:30:00Z,30.3288,-87.8293,1.767,8.54,1111122 
DISL,ioos:station:DISL:BSCA:1,2013-04-03T05:00:00Z,30.3288,-87.8293,1.729,8.82,1111122 
DISL,ioos:station:DISL:BSCA:1,2013-04-03T05:30:00Z,30.3288,-87.8293,1.708,7.38,1111122 
DISL,ioos:station:DISL:BSCA:1,2013-04-03T06:00:00Z,30.3288,-87.8293,1.709,9.02,1111122 
DISL,ioos:station:DISL:BSCA:1,2013-04-03T06:30:00Z,30.3288,-87.8293,1.666,8.88,1111122 
DISL,ioos:station:DISL:BSCA:1,2013-04-03T07:00:00Z,30.3288,-87.8293,1.645,8.91,1111122 
DISL,ioos:station:DISL:BSCA:1,2013-04-03T07:30:00Z,30.3288,-87.8293,1.639,8.94,1111122 
DISL,ioos:station:DISL:BSCA:1,2013-04-03T08:00:00Z,30.3288,-87.8293,1.635,8.96,1111122 
DISL,ioos:station:DISL:BSCA:1,2013-04-03T08:30:00Z,30.3288,-87.8293,1.618,6.92,1111122 
DISL,ioos:station:DISL:BSCA:1,2013-04-03T09:00:00Z,30.3288,-87.8293,1.628,7.42,1111122 
DISL,ioos:station:DISL:BSCA:1,2013-04-03T09:30:00Z,30.3288,-87.8293,1.64,8.42,1111122 
DISL,ioos:station:DISL:BSCA:1,2013-04-03T10:00:00Z,30.3288,-87.8293,1.662,8.25,1111122 
DISL,ioos:station:DISL:BSCA:1,2013-04-03T10:30:00Z,30.3288,-87.8293,1.681,6.66,1111122 
DISL,ioos:station:DISL:BSCA:1,2013-04-03T11:00:00Z,30.3288,-87.8293,1.701,8.78,1111122 
DISL,ioos:station:DISL:BSCA:1,2013-04-03T11:30:00Z,30.3288,-87.8293,1.72,8.6,1111122 
DISL,ioos:station:DISL:BSCA:1,2013-04-03T12:00:00Z,30.3288,-87.8293,1.733,8.56,1111122 
DISL,ioos:station:DISL:BSCA:1,2013-04-03T12:30:00Z,30.3288,-87.8293,1.753,7.69,1111122 
DISL,ioos:station:DISL:BSCA:1,2013-04-03T13:00:00Z,30.3288,-87.8293,1.768,8.09,1111122 
DISL,ioos:station:DISL:BSCA:1,2013-04-03T13:30:00Z,30.3288,-87.8293,1.791,6.92,1111122 
DISL,ioos:station:DISL:BSCA:1,2013-04-03T14:00:00Z,30.3288,-87.8293,1.761,7.85,1111122 
DISL,ioos:station:DISL:BSCA:1,2013-04-03T14:30:00Z,30.3288,-87.8293,1.748,7.52,1111122 
DISL,ioos:station:DISL:BSCA:1,2013-04-03T15:00:00Z,30.3288,-87.8293,1.758,6.61,1111122 
DISL,ioos:station:DISL:BSCA:1,2013-04-03T15:30:00Z,30.3288,-87.8293,1.768,6.22,1111122 
DISL,ioos:station:DISL:BSCA:1,2013-04-03T16:00:00Z,30.3288,-87.8293,1.813,6.35,1111122 
DISL,ioos:station:DISL:BSCA:1,2013-04-03T16:30:00Z,30.3288,-87.8293,1.855,5.09,1111122 
DISL,ioos:station:DISL:BSCA:1,2013-04-03T17:00:00Z,30.3288,-87.8293,1.885,3.52,1111122 
DISL,ioos:station:DISL:BSCA:1,2013-04-03T17:30:00Z,30.3288,-87.8293,1.938,4.17,1111122 
DISL,ioos:station:DISL:BSCA:1,2013-04-03T18:00:00Z,30.3288,-87.8293,1.973,4.69,1111122 
DISL,ioos:station:DISL:BSCA:1,2013-04-03T18:30:00Z,30.3288,-87.8293,1.992,6.24,1111122 
DISL,ioos:station:DISL:BSCA:1,2013-04-03T19:00:00Z,30.3288,-87.8293,1.93,7.26,1111122 
DISL,ioos:station:DISL:BSCA:1,2013-04-03T19:30:00Z,30.3288,-87.8293,1.768,6.74,1111122 
DISL,ioos:station:DISL:BSCA:1,2013-04-03T20:00:00Z,30.3288,-87.8293,1.605,6.39,1111122 
DISL,ioos:station:DISL:BSCA:1,2013-04-03T20:30:00Z,30.3288,-87.8293,1.57,6.5,1111122 
DISL,ioos:station:DISL:BSCA:1,2013-04-03T21:00:00Z,30.3288,-87.8293,1.7,7.19,1111122 
DISL,ioos:station:DISL:BSCA:1,2013-04-03T21:30:00Z,30.3288,-87.8293,1.939,7.14,1111122 
DISL,ioos:station:DISL:BSCA:1,2013-04-03T22:00:00Z,30.3288,-87.8293,2.31,7.24,1111122 
DISL,ioos:station:DISL:BSCA:1,2013-04-03T22:30:00Z,30.3288,-87.8293,2.427,7.37,1111122 
DISL,ioos:station:DISL:BSCA:1,2013-04-03T23:00:00Z,30.3288,-87.8293,2.46,7.49,1111122 
DISL,ioos:station:DISL:BSCA:1,2013-04-03T23:30:00Z,30.3288,-87.8293,2.379,7.0,1111122 
DISL,ioos:station:DISL:BSCA:1,2013-04-04T00:00:00Z,30.3288,-87.8293,2.302,6.6,1111122 
DISL,ioos:station:DISL:BSCA:1,2013-04-04T00:30:00Z,30.3288,-87.8293,2.224,6.25,1111122 
DISL,ioos:station:DISL:BSCA:1,2013-04-04T01:00:00Z,30.3288,-87.8293,2.137,6.15,1111122 
DISL,ioos:station:DISL:BSCA:1,2013-04-04T01:30:00Z,30.3288,-87.8293,2.13,5.25,1111122 
DISL,ioos:station:DISL:BSCA:1,2013-04-04T02:00:00Z,30.3288,-87.8293,2.138,5.86,1111122 
DISL,ioos:station:DISL:BSCA:1,2013-04-04T02:30:00Z,30.3288,-87.8293,2.152,5.63,1111122 
DISL,ioos:station:DISL:BSCA:1,2013-04-04T03:00:00Z,30.3288,-87.8293,2.149,5.89,1111122 
DISL,ioos:station:DISL:BSCA:1,2013-04-04T03:30:00Z,30.3288,-87.8293,2.098,6.12,1111122 
DISL,ioos:station:DISL:BSCA:1,2013-04-04T04:00:00Z,30.3288,-87.8293,2.01,6.19,1111122 
DISL,ioos:station:DISL:BSCA:1,2013-04-04T04:30:00Z,30.3288,-87.8293,1.938,6.24,1111122 
DISL,ioos:station:DISL:BSCA:1,2013-04-04T05:00:00Z,30.3288,-87.8293,1.883,5.82,1111122 
DISL,ioos:station:DISL:BSCA:1,2013-04-04T05:30:00Z,30.3288,-87.8293,1.836,5.91,1111122 
DISL,ioos:station:DISL:BSCA:1,2013-04-04T06:00:00Z,30.3288,-87.8293,1.849,6.31,1111122 
DISL,ioos:station:DISL:BSCA:1,2013-04-04T06:30:00Z,30.3288,-87.8293,1.861,5.92,1111122 
DISL,ioos:station:DISL:BSCA:1,2013-04-04T07:00:00Z,30.3288,-87.8293,1.882,5.99,1111122 
DISL,ioos:station:DISL:BSCA:1,2013-04-04T07:30:00Z,30.3288,-87.8293,1.891,5.09,1111122 
DISL,ioos:station:DISL:BSCA:1,2013-04-04T08:00:00Z,30.3288,-87.8293,1.846,5.57,1111122 
DISL,ioos:station:DISL:BSCA:1,2013-04-04T08:30:00Z,30.3288,-87.8293,1.816,6.05,1111122 
DISL,ioos:station:DISL:BSCA:1,2013-04-04T09:00:00Z,30.3288,-87.8293,1.783,4.45,1111122 
DISL,ioos:station:DISL:BSCA:1,2013-04-04T09:30:00Z,30.3288,-87.8293,1.777,5.71,1111122 
DISL,ioos:station:DISL:BSCA:1,2013-04-04T10:00:00Z,30.3288,-87.8293,1.771,5.31,1111122 
DISL,ioos:station:DISL:BSCA:1,2013-04-04T10:30:00Z,30.3288,-87.8293,1.753,5.74,1111122 
DISL,ioos:station:DISL:BSCA:1,2013-04-04T11:00:00Z,30.3288,-87.8293,1.753,5.1,1111122 
DISL,ioos:station:DISL:BSCA:1,2013-04-04T11:30:00Z,30.3288,-87.8293,1.759,4.23,1111122 
DISL,ioos:station:DISL:BSCA:1,2013-04-04T12:00:00Z,30.3288,-87.8293,1.81,4.02,1111122 
DISL,ioos:station:DISL:BSCA:1,2013-04-04T12:30:00Z,30.3288,-87.8293,1.857,4.59,1111122 
DISL,ioos:station:DISL:BSCA:1,2013-04-04T13:00:00Z,30.3288,-87.8293,1.901,4.51,1111122 
DISL,ioos:station:DISL:BSCA:1,2013-04-04T13:30:00Z,30.3288,-87.8293,1.928,3.6,1111122 
DISL,ioos:station:DISL:BSCA:1,2013-04-04T14:00:00Z,30.3288,-87.8293,1.911,3.89,1111122 
DISL,ioos:station:DISL:BSCA:1,2013-04-04T14:30:00Z,30.3288,-87.8293,1.936,4.64,1111122 
DISL,ioos:station:DISL:BSCA:1,2013-04-04T15:00:00Z,30.3288,-87.8293,1.932,4.99,1111122 
DISL,ioos:station:DISL:BSCA:1,2013-04-04T15:30:00Z,30.3288,-87.8293,1.946,4.81,1111122 
DISL,ioos:station:DISL:BSCA:1,2013-04-04T16:00:00Z,30.3288,-87.8293,1.954,5.07,1111122 
DISL,ioos:station:DISL:BSCA:1,2013-04-04T16:30:00Z,30.3288,-87.8293,1.996,4.9,1111122 
DISL,ioos:station:DISL:BSCA:1,2013-04-04T17:00:00Z,30.3288,-87.8293,2.015,4.11,1111122 
DISL,ioos:station:DISL:BSCA:1,2013-04-04T17:30:00Z,30.3288,-87.8293,2.036,4.45,1111122 
DISL,ioos:station:DISL:BSCA:1,2013-04-04T18:00:00Z,30.3288,-87.8293,2.062,4.85,1111122 
DISL,ioos:station:DISL:BSCA:1,2013-04-04T18:30:00Z,30.3288,-87.8293,2.098,5.81,1111122 
DISL,ioos:station:DISL:BSCA:1,2013-04-04T19:00:00Z,30.3288,-87.8293,2.135,6.32,1111122 
DISL,ioos:station:DISL:BSCA:1,2013-04-04T19:30:00Z,30.3288,-87.8293,2.136,6.43,1111122 
DISL,ioos:station:DISL:BSCA:1,2013-04-04T20:00:00Z,30.3288,-87.8293,2.134,6.79,1111122 
DISL,ioos:station:DISL:BSCA:1,2013-04-04T20:30:00Z,30.3288,-87.8293,2.12,8.06,1111122 
DISL,ioos:station:DISL:BSCA:1,2013-04-04T21:00:00Z,30.3288,-87.8293,2.148,8.3,1111122 
DISL,ioos:station:DISL:BSCA:1,2013-04-04T21:30:00Z,30.3288,-87.8293,2.238,7.92,1111122 
DISL,ioos:station:DISL:BSCA:1,2013-04-04T22:00:00Z,30.3288,-87.8293,2.287,8.36,1111122 
DISL,ioos:station:DISL:BSCA:1,2013-04-04T22:30:00Z,30.3288,-87.8293,2.225,8.29,1111122 
DISL,ioos:station:DISL:BSCA:1,2013-04-04T23:00:00Z,30.3288,-87.8293,2.208,8.79,1111122 
DISL,ioos:station:DISL:BSCA:1,2013-04-04T23:30:00Z,30.3288,-87.8293,2.198,8.77,1111122 
DISL,ioos:station:DISL:BSCA:1,2013-04-05T00:00:00Z,30.3288,-87.8293,2.198,8.83,1111122 
DISL,ioos:station:DISL:BSCA:1,2013-04-05T00:30:00Z,30.3288,-87.8293,2.194,8.68,1111122 
DISL,ioos:station:DISL:BSCA:1,2013-04-05T01:00:00Z,30.3288,-87.8293,2.173,8.7,1111122 
DISL,ioos:station:DISL:BSCA:1,2013-04-05T01:30:00Z,30.3288,-87.8293,2.166,8.92,1111122 
DISL,ioos:station:DISL:BSCA:1,2013-04-05T02:00:00Z,30.3288,-87.8293,2.183,8.65,1111122 
DISL,ioos:station:DISL:BSCA:1,2013-04-05T02:30:00Z,30.3288,-87.8293,2.196,8.49,1111122 
DISL,ioos:station:DISL:BSCA:1,2013-04-05T03:00:00Z,30.3288,-87.8293,2.127,8.57,1111122 
DISL,ioos:station:DISL:BSCA:1,2013-04-05T03:30:00Z,30.3288,-87.8293,2.029,8.35,1111122 
DISL,ioos:station:DISL:BSCA:1,2013-04-05T04:00:00Z,30.3288,-87.8293,2.081,8.57,1111122 
DISL,ioos:station:DISL:BSCA:1,2013-04-05T04:30:00Z,30.3288,-87.8293,1.973,8.78,1111122 
DISL,ioos:station:DISL:BSCA:1,2013-04-05T05:00:00Z,30.3288,-87.8293,1.958,8.43,1111122 
DISL,ioos:station:DISL:BSCA:1,2013-04-05T05:30:00Z,30.3288,-87.8293,1.904,8.26,1111122 
DISL,ioos:station:DISL:BSCA:1,2013-04-05T06:00:00Z,30.3288,-87.8293,1.871,8.61,1111122 
DISL,ioos:station:DISL:BSCA:1,2013-04-05T06:30:00Z,30.3288,-87.8293,1.862,8.63,1111122 
DISL,ioos:station:DISL:BSCA:1,2013-04-05T07:00:00Z,30.3288,-87.8293,1.86,8.56,1111122 
DISL,ioos:station:DISL:BSCA:1,2013-04-05T07:30:00Z,30.3288,-87.8293,1.852,8.49,1111122 
DISL,ioos:station:DISL:BSCA:1,2013-04-05T08:00:00Z,30.3288,-87.8293,1.823,8.32,1111122 
DISL,ioos:station:DISL:BSCA:1,2013-04-05T08:30:00Z,30.3288,-87.8293,1.784,8.16,1111122 
DISL,ioos:station:DISL:BSCA:1,2013-04-05T09:00:00Z,30.3288,-87.8293,1.773,8.16,1111122 
DISL,ioos:station:DISL:BSCA:1,2013-04-05T09:30:00Z,30.3288,-87.8293,1.736,8.12,1111122 
DISL,ioos:station:DISL:BSCA:1,2013-04-05T10:00:00Z,30.3288,-87.8293,1.745,8.07,1111122 
DISL,ioos:station:DISL:BSCA:1,2013-04-05T10:30:00Z,30.3288,-87.8293,1.775,8.05,1111122 
DISL,ioos:station:DISL:BSCA:1,2013-04-05T11:00:00Z,30.3288,-87.8293,1.684,7.93,1111122 
DISL,ioos:station:DISL:BSCA:1,2013-04-05T11:30:00Z,30.3288,-87.8293,1.746,8.03,1111122 
DISL,ioos:station:DISL:BSCA:1,2013-04-05T12:00:00Z,30.3288,-87.8293,1.725,8.01,1111122 
DISL,ioos:station:DISL:BSCA:1,2013-04-05T12:30:00Z,30.3288,-87.8293,1.699,7.94,1111122 
DISL,ioos:station:DISL:BSCA:1,2013-04-05T13:00:00Z,30.3288,-87.8293,1.67,7.96,1111122 
DISL,ioos:station:DISL:BSCA:1,2013-04-05T13:30:00Z,30.3288,-87.8293,1.676,7.77,1111122 
DISL,ioos:station:DISL:BSCA:1,2013-04-05T14:00:00Z,30.3288,-87.8293,1.694,7.87,1111122 
DISL,ioos:station:DISL:BSCA:1,2013-04-05T14:30:00Z,30.3288,-87.8293,1.706,8.09,1111122 
DISL,ioos:station:DISL:BSCA:1,2013-04-05T15:00:00Z,30.3288,-87.8293,1.713,8.03,1111122 
DISL,ioos:station:DISL:BSCA:1,2013-04-05T15:30:00Z,30.3288,-87.8293,1.731,7.96,1111122 
DISL,ioos:station:DISL:BSCA:1,2013-04-05T16:00:00Z,30.3288,-87.8293,1.759,8.04,1111122 
DISL,ioos:station:DISL:BSCA:1,2013-04-05T16:30:00Z,30.3288,-87.8293,1.76,8.16,1111122 
DISL,ioos:station:DISL:BSCA:1,2013-04-05T17:00:00Z,30.3288,-87.8293,1.755,8.25,1111122 
DISL,ioos:station:DISL:BSCA:1,2013-04-05T17:30:00Z,30.3288,-87.8293,1.766,8.44,1111122 
DISL,ioos:station:DISL:BSCA:1,2013-04-05T18:00:00Z,30.3288,-87.8293,1.763,8.45,1111122 
DISL,ioos:station:DISL:BSCA:1,2013-04-05T18:30:00Z,30.3288,-87.8293,1.75,8.01,1111122 
DISL,ioos:station:DISL:BSCA:1,2013-04-05T19:00:00Z,30.3288,-87.8293,1.741,7.85,1111122 
DISL,ioos:station:DISL:BSCA:1,2013-04-05T19:30:00Z,30.3288,-87.8293,1.76,7.66,1111122 
DISL,ioos:station:DISL:BSCA:1,2013-04-05T20:00:00Z,30.3288,-87.8293,1.788,8.35,1111122 
DISL,ioos:station:DISL:BSCA:1,2013-04-05T20:30:00Z,30.3288,-87.8293,1.805,8.34,1111122 
DISL,ioos:station:DISL:BSCA:1,2013-04-05T21:00:00Z,30.3288,-87.8293,1.797,8.01,1111122 
DISL,ioos:station:DISL:BSCA:1,2013-04-05T21:30:00Z,30.3288,-87.8293,1.822,8.17,1111122 
DISL,ioos:station:DISL:BSCA:1,2013-04-05T22:00:00Z,30.3288,-87.8293,1.831,8.36,1111122 
DISL,ioos:station:DISL:BSCA:1,2013-04-05T22:30:00Z,30.3288,-87.8293,1.843,8.64,1111122 
DISL,ioos:station:DISL:BSCA:1,2013-04-05T23:00:00Z,30.3288,-87.8293,1.862,9.11,1111122 
DISL,ioos:station:DISL:BSCA:1,2013-04-05T23:30:00Z,30.3288,-87.8293,1.879,9.52,1111122 
DISL,ioos:station:DISL:BSCA:1,2013-04-06T00:00:00Z,30.3288,-87.8293,1.88,8.28,1111122 
DISL,ioos:station:DISL:BSCA:1,2013-04-06T00:30:00Z,30.3288,-87.8293,1.883,8.01,1111122 
DISL,ioos:station:DISL:BSCA:1,2013-04-06T01:00:00Z,30.3288,-87.8293,1.882,8.25,1111122 
DISL,ioos:station:DISL:BSCA:1,2013-04-06T01:30:00Z,30.3288,-87.8293,1.879,8.81,1111122 
DISL,ioos:station:DISL:BSCA:1,2013-04-06T02:00:00Z,30.3288,-87.8293,1.887,8.44,1111122 
DISL,ioos:station:DISL:BSCA:1,2013-04-06T02:30:00Z,30.3288,-87.8293,1.89,8.08,1111122 
DISL,ioos:station:DISL:BSCA:1,2013-04-06T03:00:00Z,30.3288,-87.8293,1.897,7.75,1111122 
DISL,ioos:station:DISL:BSCA:1,2013-04-06T03:30:00Z,30.3288,-87.8293,1.893,7.61,1111122 
DISL,ioos:station:DISL:BSCA:1,2013-04-06T04:00:00Z,30.3288,-87.8293,1.881,8.03,1111122 
DISL,ioos:station:DISL:BSCA:1,2013-04-06T04:30:00Z,30.3288,-87.8293,1.865,8.13,1111122 
DISL,ioos:station:DISL:BSCA:1,2013-04-06T05:00:00Z,30.3288,-87.8293,1.853,8.2,1111122 
DISL,ioos:station:DISL:BSCA:1,2013-04-06T05:30:00Z,30.3288,-87.8293,1.83,8.13,1111122 
DISL,ioos:station:DISL:BSCA:1,2013-04-06T06:00:00Z,30.3288,-87.8293,1.802,8.24,1111122 
DISL,ioos:station:DISL:BSCA:1,2013-04-06T06:30:00Z,30.3288,-87.8293,1.774,8.5,1111122 
DISL,ioos:station:DISL:BSCA:1,2013-04-06T07:00:00Z,30.3288,-87.8293,1.746,8.64,1111122 
DISL,ioos:station:DISL:BSCA:1,2013-04-06T07:30:00Z,30.3288,-87.8293,1.731,8.74,1111122 
DISL,ioos:station:DISL:BSCA:1,2013-04-06T08:00:00Z,30.3288,-87.8293,1.713,8.68,1111122 
DISL,ioos:station:DISL:BSCA:1,2013-04-06T08:30:00Z,30.3288,-87.8293,1.701,8.7,1111122 
DISL,ioos:station:DISL:BSCA:1,2013-04-06T09:00:00Z,30.3288,-87.8293,1.682,8.75,1111122 
DISL,ioos:station:DISL:BSCA:1,2013-04-06T09:30:00Z,30.3288,-87.8293,1.669,8.65,1111122 
DISL,ioos:station:DISL:BSCA:1,2013-04-06T10:00:00Z,30.3288,-87.8293,1.658,8.34,1111122 
DISL,ioos:station:DISL:BSCA:1,2013-04-06T10:30:00Z,30.3288,-87.8293,1.649,8.39,1111122 
DISL,ioos:station:DISL:BSCA:1,2013-04-06T11:00:00Z,30.3288,-87.8293,1.649,8.31,1111122 
DISL,ioos:station:DISL:BSCA:1,2013-04-06T11:30:00Z,30.3288,-87.8293,1.648,8.27,1111122 
DISL,ioos:station:DISL:BSCA:1,2013-04-06T12:00:00Z,30.3288,-87.8293,1.648,8.25,1111122 
DISL,ioos:station:DISL:BSCA:1,2013-04-06T12:30:00Z,30.3288,-87.8293,1.654,8.08,1111122 
DISL,ioos:station:DISL:BSCA:1,2013-04-06T13:00:00Z,30.3288,-87.8293,1.663,7.92,1111122 
DISL,ioos:station:DISL:BSCA:1,2013-04-06T13:30:00Z,30.3288,-87.8293,1.675,8.03,1111122 
DISL,ioos:station:DISL:BSCA:1,2013-04-06T14:00:00Z,30.3288,-87.8293,1.711,6.65,1111122 
DISL,ioos:station:DISL:BSCA:1,2013-04-06T14:30:00Z,30.3288,-87.8293,1.727,6.71,1111122 
DISL,ioos:station:DISL:BSCA:1,2013-04-06T15:00:00Z,30.3288,-87.8293,1.768,6.38,1111122 
DISL,ioos:station:DISL:BSCA:1,2013-04-06T15:30:00Z,30.3288,-87.8293,1.786,7.27,1111122 